CZ-6A DEB

Satellite information

Favourite Embed

Satellite Type and Status

DEBRISIN ORBIT

Key statistics

Satellite CZ-6A DEB at a glance.

Uptime

1129

Days in orbit

Revolutions

≈ 14.2

Per day

Orbit

SSO

Sun Synchronous Orbit

Inclination

98.8

Latest

Satellite identification and parameters

Extended collection of information and parameters for CZ-6A DEB.

Object identification

Identified? True

Debris? True

Object name: CZ-6A DEB

International designator: 2022-151AFJ

Object number (NORAD): 56634

Object ID (CCSDS): 56634

Country: PEOPLES REPUBLIC OF CHINA (PRC)

Current information (Y/N): Y

RCS size: SMALL

Orbital parameters

Period: 101.296 minutes

Inclination: 98.7929 deg

SMA: 7198.162 km

Apoapsis: 828.625 km

Periapsis: 811.429 km

RAAN: 5.5316 deg

Eccentricy: 0.00119443

Argument of periapsis: 205.3213 deg

Mean anomaly: 154.738 deg

Mean motion: 14.21576837 rev/day

Mean motion (dot): 0.00000404 rev/day2

B* drag term: 0.00020471596 1/REarth

Two-line elements (TLE)

Creation date: Dec. 12, 2025, 10:14 a.m.

Reference frame: TEME

Reference center: EARTH

Epoch: Dec. 12, 2025, 7:43 a.m. UTC

TLE line 0: 0 CZ-6A DEB

TLE line 1: 1 56634U 22151AFJ 25346.32169244 .00000404 00000-0 20472-3 0 9992

TLE line 2: 2 56634 98.7929 5.5316 0011944 205.3213 154.7380 14.21576837137075

Live tracking on map

Real-time ground track for satellite CZ-6A DEB.

In-orbit conjunctions

A list of the most updated potential collisions computed for object CZ-6A DEB.

Target Orbit TCA Probability of collision Miss distance Type
DELTA 1 R/B(1) LEO 2025-10-15 20:21:51 0.00246533 126.0 (m) ROCKET BODY
CZ-6A DEB LEO 2025-04-26 20:29:09 0.0001167319 110.0 (m) DEBRIS
CZ-6A DEB LEO 2025-04-26 08:31:22 0.0001327676 50.0 (m) DEBRIS
FENGYUN 1C DEB SSO 2025-02-20 13:05:53 0.0001883308 199.0 (m) DEBRIS
FENGYUN 1C DEB SSO 2024-09-26 15:00:46 0.0002449467 778.0 (m) DEBRIS

Associated space launch

Chinese satellite reported for atmospheric/ocean/environmental/spatial parameter research purposes, details TBD.

CZ-6A DEB was lifted into orbit during the mission ‘Long March 6A | Yunhai 3’, on board a Long March 6A space rocket.

The launch took place on Nov. 11, 2022, 10:52 p.m. from Launch Complex 9A.

For more information about the launch, click the button.

Launch to space Long March 6A | Yunhai 3
Long March 6A | Yunhai 3

Agency: N/A

Status: Launch Successful

Launch date: Nov. 11, 2022, 10:52 p.m. UTC

Rocket: Long March 6A

Launch pad: Launch Complex 9A

Location: Taiyuan Satellite Launch Center, People's Republic of China

...

Latest news about this satellite

There are no fresh news available about this satellite. Check back as we update our databases every day.


Newsletter sign-up

Weekly statistics, charts and insights to help you stay on top of the space industry.